When you browse on this site, cookies collect data to enhance your experience and personalize the content and advertising you see.
Visit our Privacy Policy to learn more. By continuing to use the site, you agree to this use of cookies and data.
  • In Romania
  • List of Countries
  • For 7 days
  • Water Temperature
  • Satellite Maps
  • Weather Map
  • Weather Widgets
  • user-avatar
    Login

    Hourly Weather Ituni

    Today, 12 December, Wednesday

    Time Temperature Precipitation Wind Pressure Humidity
    00:00 +22°C° 0.7 mm 0 mps 755 mmHg 99%
    01:00 +22°C° 0.7 mm 0 mps 755 mmHg 99%
    02:00 +22°C° 0.7 mm 0 mps 754 mmHg 99%
    03:00 +22°C° 0.2 mm 0 mps 754 mmHg 99%
    04:00 +22°C° 0.2 mm 0 mps 754 mmHg 99%
    05:00 +22°C° 0.2 mm 0 mps 754 mmHg 99%
    06:00 +25°C° 0.1 mm 1 mps 754 mmHg 97%
    07:00 +26°C° 0.1 mm 1 mps 755 mmHg 95%
    08:00 +27°C° 0.1 mm 1 mps 755 mmHg 93%
    09:00 +28°C° 0.7 mm 1 mps 755 mmHg 89%
    10:00 +29°C° 0.7 mm 1 mps 755 mmHg 85%
    11:00 +29°C° 0.7 mm 2 mps 755 mmHg 82%
    12:00 +30°C° 0.8 mm 2 mps 754 mmHg 81%
    13:00 +30°C° 0.8 mm 2 mps 753 mmHg 81%
    14:00 +30°C° 0.8 mm 2 mps 752 mmHg 81%
    15:00 +29°C° 0.6 mm 2 mps 752 mmHg 85%
    16:00 +28°C° 0.6 mm 1 mps 752 mmHg 88%
    17:00 +28°C° 0.6 mm 1 mps 752 mmHg 92%
    18:00 +27°C° 0.1 mm 1 mps 752 mmHg 94%
    19:00 +26°C° 0.1 mm 1 mps 753 mmHg 95%
    20:00 +25°C° 0.1 mm 1 mps 753 mmHg 97%
    21:00 +25°C° 0 mm 1 mps 754 mmHg 98%
    22:00 +24°C° 0 mm 1 mps 754 mmHg 98%
    23:00 +24°C° 0 mm 1 mps 754 mmHg 98%

    Tomorrow, 13 December, Thursday

    Time Temperature Precipitation Wind Pressure Humidity
    00:00 +24°C° 0.1 mm 1 mps 754 mmHg 98%
    01:00 +24°C° 0.1 mm 1 mps 753 mmHg 98%
    02:00 +22°C° 0.1 mm 0 mps 753 mmHg 98%
    03:00 +24°C° 0.3 mm 1 mps 753 mmHg 98%
    04:00 +24°C° 0.3 mm 1 mps 753 mmHg 98%
    05:00 +24°C° 0.3 mm 1 mps 753 mmHg 98%
    06:00 +25°C° 0.3 mm 1 mps 753 mmHg 96%
    07:00 +26°C° 0.3 mm 1 mps 754 mmHg 94%
    08:00 +27°C° 0.3 mm 1 mps 754 mmHg 93%
    09:00 +28°C° 0.5 mm 2 mps 754 mmHg 86%
    10:00 +29°C° 0.5 mm 2 mps 755 mmHg 79%
    11:00 +31°C° 0.5 mm 2 mps 755 mmHg 72%
    12:00 +31°C° 0.3 mm 2 mps 754 mmHg 68%
    13:00 +32°C° 0.3 mm 2 mps 753 mmHg 63%
    14:00 +32°C° 0.3 mm 2 mps 752 mmHg 59%
    15:00 +31°C° 0.1 mm 2 mps 752 mmHg 63%
    16:00 +31°C° 0.1 mm 2 mps 751 mmHg 66%
    17:00 +30°C° 0.1 mm 2 mps 751 mmHg 70%
    18:00 +28°C° 0 mm 2 mps 752 mmHg 75%
    19:00 +27°C° 0 mm 2 mps 753 mmHg 81%
    20:00 +25°C° 0 mm 1 mps 753 mmHg 86%
    21:00 +25°C° 0 mm 1 mps 754 mmHg 90%
    22:00 +24°C° 0 mm 1 mps 754 mmHg 93%
    23:00 +24°C° 0 mm 1 mps 754 mmHg 96%

    Day after tomorrow, 14 December, Friday

    Time Temperature Precipitation Wind Pressure Humidity
    00:00 +24°C° 0 mm 1 mps 754 mmHg 96%
    01:00 +24°C° 0 mm 1 mps 753 mmHg 96%
    02:00 +24°C° 0 mm 1 mps 753 mmHg 96%
    03:00 +23°C° 0.1 mm 1 mps 753 mmHg 96%
    04:00 +23°C° 0.1 mm 1 mps 753 mmHg 96%
    05:00 +23°C° 0.1 mm 1 mps 753 mmHg 97%
    06:00 +24°C° 0.1 mm 1 mps 754 mmHg 93%
    07:00 +26°C° 0.1 mm 1 mps 754 mmHg 89%
    08:00 +27°C° 0.1 mm 1 mps 755 mmHg 85%
    09:00 +28°C° 0.1 mm 2 mps 755 mmHg 77%
    10:00 +30°C° 0.1 mm 2 mps 755 mmHg 68%
    11:00 +31°C° 0.1 mm 2 mps 755 mmHg 60%
    12:00 +31°C° 0.2 mm 2 mps 754 mmHg 59%
    13:00 +32°C° 0.2 mm 2 mps 753 mmHg 59%
    14:00 +32°C° 0.2 mm 2 mps 753 mmHg 58%
    15:00 +30°C° 0.5 mm 2 mps 753 mmHg 65%
    16:00 +29°C° 0.5 mm 2 mps 752 mmHg 72%
    17:00 +28°C° 0.5 mm 2 mps 752 mmHg 80%
    18:00 +27°C° 0.1 mm 1 mps 753 mmHg 83%
    19:00 +26°C° 0.1 mm 1 mps 754 mmHg 87%
    20:00 +24°C° 0.1 mm 1 mps 754 mmHg 91%
    21:00 +24°C° 0 mm 1 mps 754 mmHg 93%
    22:00 +24°C° 0 mm 1 mps 755 mmHg 94%
    23:00 +21°C° 0 mm 0 mps 755 mmHg 96%

    15 December, Saturday

    Time Temperature Precipitation Wind Pressure Humidity
    00:00 +21°C° 0 mm 0 mps 754 mmHg 97%
    01:00 +21°C° 0 mm 0 mps 754 mmHg 97%
    02:00 +21°C° 0 mm 0 mps 754 mmHg 98%
    03:00 +21°C° 0 mm 0 mps 754 mmHg 98%
    04:00 +21°C° 0 mm 0 mps 754 mmHg 98%
    05:00 +20°C° 0 mm 0 mps 754 mmHg 98%
    06:00 +22°C° 0 mm 0 mps 755 mmHg 94%
    07:00 +23°C° 0 mm 0 mps 755 mmHg 89%
    08:00 +26°C° 0 mm 1 mps 756 mmHg 85%
    09:00 +28°C° 0.1 mm 1 mps 756 mmHg 76%
    10:00 +30°C° 0.1 mm 1 mps 756 mmHg 66%
    11:00 +31°C° 0.1 mm 2 mps 756 mmHg 57%
    12:00 +31°C° 0.2 mm 2 mps 755 mmHg 58%
    13:00 +32°C° 0.2 mm 2 mps 754 mmHg 58%
    14:00 +32°C° 0.2 mm 2 mps 753 mmHg 59%
    15:00 +30°C° 0.5 mm 2 mps 753 mmHg 65%
    16:00 +29°C° 0.5 mm 2 mps 753 mmHg 71%
    17:00 +28°C° 0.5 mm 2 mps 753 mmHg 77%
    18:00 +27°C° 0.1 mm 1 mps 753 mmHg 81%
    19:00 +25°C° 0.1 mm 1 mps 754 mmHg 86%
    20:00 +24°C° 0.1 mm 1 mps 755 mmHg 90%
    21:00 +24°C° 0 mm 1 mps 755 mmHg 92%
    22:00 +23°C° 0 mm 1 mps 755 mmHg 94%
    23:00 +21°C° 0 mm 0 mps 755 mmHg 96%

    16 December, Sunday

    Time Temperature Precipitation Wind Pressure Humidity
    00:00 +21°C° 0 mm 0 mps 755 mmHg 97%
    01:00 +21°C° 0 mm 0 mps 754 mmHg 97%
    02:00 +20°C° 0 mm 0 mps 754 mmHg 98%
    03:00 +20°C° 0 mm 0 mps 754 mmHg 98%
    04:00 +20°C° 0 mm 0 mps 754 mmHg 98%
    05:00 +20°C° 0 mm 0 mps 754 mmHg 99%
    06:00 +21°C° 0 mm 0 mps 755 mmHg 95%
    07:00 +22°C° 0 mm 0 mps 755 mmHg 92%
    08:00 +23°C° 0 mm 0 mps 756 mmHg 89%
    09:00 +27°C° 0 mm 1 mps 756 mmHg 81%
    10:00 +28°C° 0 mm 1 mps 756 mmHg 73%
    11:00 +30°C° 0 mm 1 mps 755 mmHg 64%
    12:00 +31°C° 0.1 mm 1 mps 755 mmHg 62%
    13:00 +31°C° 0.1 mm 1 mps 754 mmHg 60%
    14:00 +32°C° 0.1 mm 2 mps 753 mmHg 58%
    15:00 +31°C° 0.1 mm 2 mps 753 mmHg 61%
    16:00 +30°C° 0.1 mm 1 mps 752 mmHg 64%
    17:00 +30°C° 0.1 mm 1 mps 752 mmHg 67%
    18:00 +28°C° 0 mm 1 mps 753 mmHg 73%
    19:00 +26°C° 0 mm 1 mps 753 mmHg 79%
    20:00 +24°C° 0 mm 1 mps 754 mmHg 84%
    21:00 +24°C° 0 mm 1 mps 754 mmHg 89%
    22:00 +23°C° 0 mm 1 mps 754 mmHg 93%
    23:00 +23°C° 0 mm 1 mps 754 mmHg 97%

    17 December, Monday

    Time Temperature Precipitation Wind Pressure Humidity
    00:00 +20°C° 0 mm 0 mps 754 mmHg 98%
    01:00 +20°C° 0 mm 0 mps 754 mmHg 98%
    02:00 +20°C° 0 mm 0 mps 753 mmHg 99%
    03:00 +20°C° 0 mm 0 mps 754 mmHg 99%
    04:00 +20°C° 0 mm 0 mps 754 mmHg 98%
    05:00 +20°C° 0 mm 0 mps 754 mmHg 98%
    06:00 +21°C° 0 mm 0 mps 754 mmHg 94%
    07:00 +23°C° 0 mm 0 mps 755 mmHg 89%
    08:00 +24°C° 0 mm 0 mps 755 mmHg 84%
    09:00 +28°C° 0 mm 1 mps 755 mmHg 76%
    10:00 +29°C° 0 mm 1 mps 755 mmHg 69%
    11:00 +31°C° 0 mm 1 mps 755 mmHg 61%
    12:00 +31°C° 0 mm 1 mps 754 mmHg 58%
    13:00 +32°C° 0 mm 1 mps 753 mmHg 56%
    14:00 +33°C° 0 mm 1 mps 752 mmHg 53%
    15:00 +32°C° 0.2 mm 1 mps 752 mmHg 60%
    16:00 +30°C° 0.2 mm 2 mps 752 mmHg 67%
    17:00 +29°C° 0.2 mm 2 mps 752 mmHg 74%
    18:00 +28°C° 0 mm 2 mps 752 mmHg 80%
    19:00 +26°C° 0 mm 1 mps 753 mmHg 86%
    20:00 +25°C° 0 mm 1 mps 753 mmHg 93%
    21:00 +25°C° 0 mm 1 mps 754 mmHg 94%
    22:00 +24°C° 0 mm 1 mps 754 mmHg 96%
    23:00 +22°C° 0 mm 0 mps 754 mmHg 98%
    Show more